Weather History for Farmington, NM

Change the Weather History Date:

Tuesday, March 11, 2014

  Actual Average Record
Temperature  
Mean Temperature 42 °F -  
Max Temperature 53 °F 55 °F 81 °F (1989)
Min Temperature 30 °F 27 °F 19 °F (2009)
Degree Days  
Heating Degree Days 24    
Moisture  
Dew Point 12 °F    
Average Humidity 32    
Maximum Humidity 64    
Minimum Humidity 5    
Precipitation  
Precipitation 0.00 in - - ()
Sea Level Pressure  
Sea Level Pressure 29.95 in    
Wind  
Wind Speed 8 mph (WNW)    
Max Wind Speed 22 mph    
Max Gust Speed 34 mph    
Visibility 10 miles    
Events      
Averages and records for this station are not official NWS values.
T = Trace of Precipitation, MM = Missing Value Source: NWS Daily Summary

Daily Weather History Graph

Daily Weather History Graph

Search for Another Location

Airport:

Trip Planner

Search our weather history database for the weather conditions in past years. The results will help you decide how hot, cold, wet, or windy it might be!

Date:

Astronomy

Mar. 11, 2014 Rise Set
Actual Time 7:29 AM MDT 7:16 PM MDT
Civil Twilight 7:03 AM MDT 7:42 PM MDT
Nautical Twilight 6:33 AM MDT 8:12 PM MDT
Astronomical Twilight 6:03 AM MDT 8:42 PM MDT
Moon 3:01 PM MDT (3/11) 4:19 AM MDT (3/11)
Length of Visible Light 12h 38m
Length of Day
11h 47m
Waxing Gibbous, 78% of the Moon is Illuminated
Mar 11
Waxing Gibbous
Mar 16
Full
Mar 23
Last Quarter
Mar 30
New
Apr 7
First Quarter

Hourly Weather History & Observations

Time (MDT) Temp. Windchill Dew Point Humidity Pressure Visibility Wind Dir Wind Speed Gust Speed Precip Events Conditions
12:53 AM 36.0 °F 29.6 °F 21.0 °F 55% 29.84 in 10.0 mi NNE 8.1 mph - N/A   Clear
1:53 AM 37.9 °F - 21.0 °F 51% 29.83 in 10.0 mi Calm Calm - N/A   Clear
2:53 AM 35.1 °F - 21.0 °F 57% 29.82 in 10.0 mi Calm Calm - N/A   Clear
3:53 AM 35.1 °F - 21.0 °F 57% 29.80 in 10.0 mi Calm Calm - N/A   Clear
4:53 AM 35.1 °F 32.2 °F 21.0 °F 57% 29.79 in 10.0 mi Variable 3.5 mph - N/A   Clear
5:53 AM 30.9 °F 27.5 °F 19.9 °F 64% 29.83 in 10.0 mi West 3.5 mph - N/A   Clear
6:53 AM 36.0 °F 32.1 °F 19.0 °F 50% 29.84 in 10.0 mi SW 4.6 mph - N/A   Clear
7:53 AM 35.1 °F 27.4 °F 19.0 °F 52% 29.90 in 10.0 mi SW 10.4 mph - N/A   Clear
8:53 AM 42.1 °F 35.7 °F 17.1 °F 37% 29.93 in 10.0 mi West 11.5 mph - N/A   Clear
9:53 AM 45.0 °F 37.6 °F 6.1 °F 20% 29.96 in 10.0 mi NW 17.3 mph 28.8 mph N/A   Clear
10:53 AM 46.9 °F - 3.9 °F 17% 29.98 in 10.0 mi WNW 15.0 mph 31.1 mph N/A   Clear
11:53 AM 48.9 °F - 3.0 °F 15% 29.99 in 10.0 mi NW 15.0 mph 26.5 mph N/A   Clear
12:53 PM 50.0 °F - 9.0 °F 19% 29.99 in 10.0 mi NW 16.1 mph 25.3 mph N/A   Partly Cloudy
1:53 PM 50.0 °F - 6.1 °F 17% 29.98 in 10.0 mi WNW 17.3 mph 32.2 mph N/A   Clear
2:53 PM 51.1 °F - 1.9 °F 13% 29.97 in 10.0 mi WNW 20.7 mph 34.5 mph N/A   Clear
3:53 PM 53.1 °F - 1.9 °F 12% 29.96 in 10.0 mi NW 18.4 mph 25.3 mph N/A   Clear
4:53 PM 51.1 °F - 1.9 °F 13% 29.96 in 10.0 mi West 21.9 mph 27.6 mph N/A   Clear
5:53 PM 50.0 °F - 3.0 °F 15% 29.99 in 10.0 mi WNW 19.6 mph 27.6 mph N/A   Clear
6:53 PM 48.0 °F - 3.9 °F 16% 30.01 in 10.0 mi WNW 15.0 mph - N/A   Clear
7:53 PM 44.1 °F 37.4 °F 8.1 °F 23% 30.05 in 10.0 mi NW 13.8 mph - N/A   Clear
8:53 PM 39.9 °F 35.1 °F 14.0 °F 35% 30.07 in 10.0 mi NW 6.9 mph - N/A   Clear
9:53 PM 39.0 °F - 15.1 °F 38% 30.09 in 10.0 mi Calm Calm - N/A   Clear
10:53 PM 37.0 °F 31.0 °F 17.1 °F 44% 30.11 in 10.0 mi SSW 8.1 mph - N/A   Clear
11:53 PM 35.1 °F 30.1 °F 18.0 °F 50% 30.12 in 10.0 mi West 5.8 mph - N/A   Clear